Year,Month,Day,Hour,Minute,Value (Times are PST for temperature in C)
2021,07,01,00,00,20.10
2021,07,01,00,01,20.10
2021,07,01,00,02,20.10
2021,07,01,00,03,20.10
2021,07,01,00,04,20.20
2021,07,01,00,05,20.20
2021,07,01,00,06,20.20
2021,07,01,00,07,20.20
2021,07,01,00,08,20.20
2021,07,01,00,09,20.20
2021,07,01,00,10,20.20
2021,07,01,00,11,20.20
2021,07,01,00,12,20.10
2021,07,01,00,13,20.10
2021,07,01,00,14,20.10
2021,07,01,00,15,20.10
2021,07,01,00,16,20.10
2021,07,01,00,17,20.10
2021,07,01,00,18,20.00
2021,07,01,00,19,20.00
2021,07,01,00,20,20.00
2021,07,01,00,21,20.00
2021,07,01,00,22,19.90
2021,07,01,00,23,19.90
2021,07,01,00,24,19.90
2021,07,01,00,25,19.90
2021,07,01,00,26,19.90
2021,07,01,00,27,19.90
2021,07,01,00,28,19.90
2021,07,01,00,29,19.90
2021,07,01,00,30,19.90
2021,07,01,00,31,19.90
2021,07,01,00,32,19.90
2021,07,01,00,33,19.80
2021,07,01,00,34,19.90
2021,07,01,00,35,19.80
2021,07,01,00,36,19.80
2021,07,01,00,37,19.80
2021,07,01,00,38,19.80
2021,07,01,00,39,19.80
2021,07,01,00,40,19.80
2021,07,01,00,41,19.80
2021,07,01,00,42,19.80
2021,07,01,00,43,19.80
2021,07,01,00,44,19.80
2021,07,01,00,45,19.80
2021,07,01,00,46,19.80
2021,07,01,00,47,19.80
2021,07,01,00,48,19.80
2021,07,01,00,49,19.80
2021,07,01,00,50,19.80
2021,07,01,00,51,19.70
2021,07,01,00,52,19.70
2021,07,01,00,53,19.70
2021,07,01,00,54,19.70
2021,07,01,00,55,19.80
2021,07,01,00,56,19.80
2021,07,01,00,57,19.80
2021,07,01,00,58,19.80
2021,07,01,00,59,19.80
2021,07,01,01,00,19.80
2021,07,01,01,01,19.70
2021,07,01,01,02,19.70
2021,07,01,01,03,19.70
2021,07,01,01,04,19.70
2021,07,01,01,05,19.70
2021,07,01,01,06,19.70
2021,07,01,01,07,19.70
2021,07,01,01,08,19.70
2021,07,01,01,09,19.70
2021,07,01,01,10,19.60
2021,07,01,01,11,19.60
2021,07,01,01,12,19.60
2021,07,01,01,13,19.60
2021,07,01,01,14,19.60
2021,07,01,01,15,19.60
2021,07,01,01,16,19.60
2021,07,01,01,17,19.60
2021,07,01,01,18,19.60
2021,07,01,01,19,19.50
2021,07,01,01,20,19.50
2021,07,01,01,21,19.50
2021,07,01,01,22,19.50
2021,07,01,01,23,19.50
2021,07,01,01,24,19.50
2021,07,01,01,25,19.50
2021,07,01,01,26,19.50
2021,07,01,01,27,19.50
2021,07,01,01,28,19.40
2021,07,01,01,29,19.40
2021,07,01,01,30,19.40
2021,07,01,01,31,19.40
2021,07,01,01,32,19.40
2021,07,01,01,33,19.40
2021,07,01,01,34,19.40
2021,07,01,01,35,19.40
2021,07,01,01,36,19.40
2021,07,01,01,37,19.40
2021,07,01,01,38,19.40
2021,07,01,01,39,19.40
2021,07,01,01,40,19.40
2021,07,01,01,41,19.40
2021,07,01,01,42,19.40
2021,07,01,01,43,19.40
2021,07,01,01,44,19.40
2021,07,01,01,45,19.40
2021,07,01,01,46,19.40
2021,07,01,01,47,19.40
2021,07,01,01,48,19.40
2021,07,01,01,49,19.40
2021,07,01,01,50,19.40
2021,07,01,01,51,19.40
2021,07,01,01,52,19.40
2021,07,01,01,53,19.40
2021,07,01,01,54,19.40
2021,07,01,01,55,19.40
2021,07,01,01,56,19.40
2021,07,01,01,57,19.40
2021,07,01,01,58,19.40
2021,07,01,01,59,19.40
2021,07,01,02,00,19.40
2021,07,01,02,01,19.40
2021,07,01,02,02,19.40
2021,07,01,02,03,19.40
2021,07,01,02,04,19.40
2021,07,01,02,05,19.40
2021,07,01,02,06,19.50
2021,07,01,02,07,19.50
2021,07,01,02,08,19.50
2021,07,01,02,09,19.50
2021,07,01,02,10,19.50
2021,07,01,02,11,19.50
2021,07,01,02,12,19.50
2021,07,01,02,13,19.50
2021,07,01,02,14,19.50
2021,07,01,02,15,19.50
2021,07,01,02,16,19.50
2021,07,01,02,17,19.50
2021,07,01,02,18,19.50
2021,07,01,02,19,19.50
2021,07,01,02,20,19.50
2021,07,01,02,21,19.50
2021,07,01,02,22,19.50
2021,07,01,02,23,19.50
2021,07,01,02,24,19.40
2021,07,01,02,25,19.40
2021,07,01,02,26,19.40
2021,07,01,02,27,19.40
2021,07,01,02,28,19.40
2021,07,01,02,29,19.40
2021,07,01,02,30,19.40
2021,07,01,02,31,19.30
2021,07,01,02,32,19.30
2021,07,01,02,33,19.30
2021,07,01,02,34,19.30
2021,07,01,02,35,19.30
2021,07,01,02,36,19.30
2021,07,01,02,37,19.30
2021,07,01,02,38,19.30
2021,07,01,02,39,19.20
2021,07,01,02,40,19.20
2021,07,01,02,41,19.20
2021,07,01,02,42,19.20
2021,07,01,02,43,19.20
2021,07,01,02,44,19.20
2021,07,01,02,45,19.20
2021,07,01,02,46,19.10
2021,07,01,02,47,19.10
2021,07,01,02,48,19.10
2021,07,01,02,49,19.10
2021,07,01,02,50,19.10
2021,07,01,02,51,19.10
2021,07,01,02,52,19.10
2021,07,01,02,53,19.10
2021,07,01,02,54,19.10
2021,07,01,02,55,19.10
2021,07,01,02,56,19.10
2021,07,01,02,57,19.00
2021,07,01,02,58,19.00
2021,07,01,02,59,19.00
2021,07,01,03,00,19.00
2021,07,01,03,01,18.90
2021,07,01,03,02,18.90
2021,07,01,03,03,18.90
2021,07,01,03,04,18.90
2021,07,01,03,05,18.90
2021,07,01,03,06,18.90
2021,07,01,03,07,18.90
2021,07,01,03,08,18.80
2021,07,01,03,09,18.80
2021,07,01,03,10,18.80
2021,07,01,03,11,18.80
2021,07,01,03,12,18.80
2021,07,01,03,13,18.70
2021,07,01,03,14,18.70
2021,07,01,03,15,18.70
2021,07,01,03,16,18.70
2021,07,01,03,17,18.70
2021,07,01,03,18,18.70
2021,07,01,03,19,18.70
2021,07,01,03,20,18.70
2021,07,01,03,21,18.60
2021,07,01,03,22,18.60
2021,07,01,03,23,18.60
2021,07,01,03,24,18.60
2021,07,01,03,25,18.50
2021,07,01,03,26,18.50
2021,07,01,03,27,18.50
2021,07,01,03,28,18.50
2021,07,01,03,29,18.50
2021,07,01,03,30,18.40
2021,07,01,03,31,18.40
2021,07,01,03,32,18.40
2021,07,01,03,33,18.40
2021,07,01,03,34,18.40
2021,07,01,03,35,18.40
2021,07,01,03,36,18.40
2021,07,01,03,37,18.40
2021,07,01,03,38,18.40
2021,07,01,03,39,18.40
2021,07,01,03,40,18.40
2021,07,01,03,41,18.40
2021,07,01,03,42,18.40
2021,07,01,03,43,18.40
2021,07,01,03,44,18.40
2021,07,01,03,45,18.40
2021,07,01,03,46,18.40
2021,07,01,03,47,18.40
2021,07,01,03,48,18.40
2021,07,01,03,49,18.40
2021,07,01,03,50,18.40
2021,07,01,03,51,18.40
2021,07,01,03,52,18.40
2021,07,01,03,53,18.40
2021,07,01,03,54,18.40
2021,07,01,03,55,18.40
2021,07,01,03,56,18.40
2021,07,01,03,57,18.30
2021,07,01,03,58,18.30
2021,07,01,03,59,18.30
2021,07,01,04,00,18.30
2021,07,01,04,01,18.30
2021,07,01,04,02,18.30
2021,07,01,04,03,18.30
2021,07,01,04,04,18.30
2021,07,01,04,05,18.30
2021,07,01,04,06,18.30
2021,07,01,04,07,18.30
2021,07,01,04,08,18.20
2021,07,01,04,09,18.20
2021,07,01,04,10,18.20
2021,07,01,04,11,18.20
2021,07,01,04,12,18.10
2021,07,01,04,13,18.10
2021,07,01,04,14,18.10
2021,07,01,04,15,18.10
2021,07,01,04,16,18.10
2021,07,01,04,17,18.10
2021,07,01,04,18,18.10
2021,07,01,04,19,18.10
2021,07,01,04,20,18.00
2021,07,01,04,21,18.00
2021,07,01,04,22,18.00
2021,07,01,04,23,18.00
2021,07,01,04,24,18.00
2021,07,01,04,25,18.00
2021,07,01,04,26,18.00
2021,07,01,04,27,17.90
2021,07,01,04,28,17.90
2021,07,01,04,29,17.90
2021,07,01,04,30,17.90
2021,07,01,04,31,17.90
2021,07,01,04,32,17.90
2021,07,01,04,33,17.90
2021,07,01,04,34,17.90
2021,07,01,04,35,17.90
2021,07,01,04,36,17.90
2021,07,01,04,37,17.90
2021,07,01,04,38,17.90
2021,07,01,04,39,17.90
2021,07,01,04,40,17.90
2021,07,01,04,41,17.80
2021,07,01,04,42,17.80
2021,07,01,04,43,17.80
2021,07,01,04,44,17.80
2021,07,01,04,45,17.80
2021,07,01,04,46,17.80
2021,07,01,04,47,17.80
2021,07,01,04,48,17.80
2021,07,01,04,49,17.80
2021,07,01,04,50,17.80
2021,07,01,04,51,17.80
2021,07,01,04,52,17.80
2021,07,01,04,53,17.80
2021,07,01,04,54,17.70
2021,07,01,04,55,17.70
2021,07,01,04,56,17.70
2021,07,01,04,57,17.70
2021,07,01,04,58,17.70
2021,07,01,04,59,17.70
2021,07,01,05,00,17.70
2021,07,01,05,01,17.70
2021,07,01,05,02,17.70
2021,07,01,05,03,17.70
2021,07,01,05,04,17.70
2021,07,01,05,05,17.70
2021,07,01,05,06,17.70
2021,07,01,05,07,17.70
2021,07,01,05,08,17.70
2021,07,01,05,09,17.70
2021,07,01,05,10,17.70
2021,07,01,05,11,17.60
2021,07,01,05,12,17.60
2021,07,01,05,13,17.60
2021,07,01,05,14,17.60
2021,07,01,05,15,17.60
2021,07,01,05,16,17.60
2021,07,01,05,17,17.60
2021,07,01,05,18,17.60
2021,07,01,05,19,17.60
2021,07,01,05,20,17.60
2021,07,01,05,21,17.60
2021,07,01,05,22,17.60
2021,07,01,05,23,17.60
2021,07,01,05,24,17.60
2021,07,01,05,25,17.60
2021,07,01,05,26,17.60
2021,07,01,05,27,17.50
2021,07,01,05,28,17.50
2021,07,01,05,29,17.50
2021,07,01,05,30,17.50
2021,07,01,05,31,17.50
2021,07,01,05,32,17.50
2021,07,01,05,33,17.50
2021,07,01,05,34,17.50
2021,07,01,05,35,17.50
2021,07,01,05,36,17.50
2021,07,01,05,37,17.50
2021,07,01,05,38,17.50
2021,07,01,05,39,17.40
2021,07,01,05,40,17.40
2021,07,01,05,41,17.40
2021,07,01,05,42,17.40
2021,07,01,05,43,17.40
2021,07,01,05,44,17.40
2021,07,01,05,45,17.40
2021,07,01,05,46,17.40
2021,07,01,05,47,17.40
2021,07,01,05,48,17.40
2021,07,01,05,49,17.40
2021,07,01,05,50,17.40
2021,07,01,05,51,17.40
2021,07,01,05,52,17.40
2021,07,01,05,53,17.30
2021,07,01,05,54,17.30
2021,07,01,05,55,17.30
2021,07,01,05,56,17.30
2021,07,01,05,57,17.30
2021,07,01,05,58,17.30
2021,07,01,05,59,17.30
2021,07,01,06,00,17.30
2021,07,01,06,01,17.30
2021,07,01,06,02,17.30
2021,07,01,06,03,17.30
2021,07,01,06,04,17.30
2021,07,01,06,05,17.30
2021,07,01,06,06,17.30
2021,07,01,06,07,17.30
2021,07,01,06,08,17.30
2021,07,01,06,09,17.30
2021,07,01,06,10,17.30
2021,07,01,06,11,17.30
2021,07,01,06,12,17.40
2021,07,01,06,13,17.40
2021,07,01,06,14,17.40
2021,07,01,06,15,17.40
2021,07,01,06,16,17.40
2021,07,01,06,17,17.30
2021,07,01,06,18,17.30
2021,07,01,06,19,17.30
2021,07,01,06,20,17.40
2021,07,01,06,21,17.40
2021,07,01,06,22,17.40
2021,07,01,06,23,17.40
2021,07,01,06,24,17.40
2021,07,01,06,25,17.40
2021,07,01,06,26,17.40
2021,07,01,06,27,17.40
2021,07,01,06,28,17.30
2021,07,01,06,29,17.30
2021,07,01,06,30,17.30
2021,07,01,06,31,17.30
2021,07,01,06,32,17.30
2021,07,01,06,33,17.30
2021,07,01,06,34,17.30
2021,07,01,06,35,17.30
2021,07,01,06,36,17.30
2021,07,01,06,37,17.30
2021,07,01,06,38,17.30
2021,07,01,06,39,17.30
2021,07,01,06,40,17.30
2021,07,01,06,41,17.30
2021,07,01,06,42,17.40
2021,07,01,06,43,17.40
2021,07,01,06,44,17.40
2021,07,01,06,45,17.40
2021,07,01,06,46,17.40
2021,07,01,06,47,17.40
2021,07,01,06,48,17.40
2021,07,01,06,49,17.40
2021,07,01,06,50,17.40
2021,07,01,06,51,17.30
2021,07,01,06,52,17.30
2021,07,01,06,53,17.30
2021,07,01,06,54,17.30
2021,07,01,06,55,17.30
2021,07,01,06,56,17.30
2021,07,01,06,57,17.30
2021,07,01,06,58,17.30
2021,07,01,06,59,17.30
2021,07,01,07,00,17.30
2021,07,01,07,01,17.30
2021,07,01,07,02,17.30
2021,07,01,07,03,17.30
2021,07,01,07,04,17.30
2021,07,01,07,05,17.30
2021,07,01,07,06,17.30
2021,07,01,07,07,17.30
2021,07,01,07,08,17.30
2021,07,01,07,09,17.30
2021,07,01,07,10,17.30
2021,07,01,07,11,17.30
2021,07,01,07,12,17.30
2021,07,01,07,13,17.30
2021,07,01,07,14,17.30
2021,07,01,07,15,17.40
2021,07,01,07,16,17.40
2021,07,01,07,17,17.40
2021,07,01,07,18,17.40
2021,07,01,07,19,17.40
2021,07,01,07,20,17.40
2021,07,01,07,21,17.40
2021,07,01,07,22,17.40
2021,07,01,07,23,17.40
2021,07,01,07,24,17.40
2021,07,01,07,25,17.40
2021,07,01,07,26,17.40
2021,07,01,07,27,17.40
2021,07,01,07,28,17.40
2021,07,01,07,29,17.40
2021,07,01,07,30,17.40
2021,07,01,07,31,17.50
2021,07,01,07,32,17.50
2021,07,01,07,33,17.50
2021,07,01,07,34,17.50
2021,07,01,07,35,17.50
2021,07,01,07,36,17.50
2021,07,01,07,37,17.50
2021,07,01,07,38,17.50
2021,07,01,07,39,17.50
2021,07,01,07,40,17.50
2021,07,01,07,41,17.50
2021,07,01,07,42,17.60
2021,07,01,07,43,17.60
2021,07,01,07,44,17.60
2021,07,01,07,45,17.60
2021,07,01,07,46,17.60
2021,07,01,07,47,17.60
2021,07,01,07,48,17.60
2021,07,01,07,49,17.60
2021,07,01,07,50,17.60
2021,07,01,07,51,17.60
2021,07,01,07,52,17.60
2021,07,01,07,53,17.60
2021,07,01,07,54,17.60
2021,07,01,07,55,17.60
2021,07,01,07,56,17.60
2021,07,01,07,57,17.60
2021,07,01,07,58,17.60
2021,07,01,07,59,17.60
2021,07,01,08,00,17.60
2021,07,01,08,01,17.60
2021,07,01,08,02,17.60
2021,07,01,08,03,17.70
2021,07,01,08,04,17.70
2021,07,01,08,05,17.70
2021,07,01,08,06,17.70
2021,07,01,08,07,17.70
2021,07,01,08,08,17.70
2021,07,01,08,09,17.70
2021,07,01,08,10,17.70
2021,07,01,08,11,17.70
2021,07,01,08,12,17.70
2021,07,01,08,13,17.70
2021,07,01,08,14,17.70
2021,07,01,08,15,17.80
2021,07,01,08,16,17.80
2021,07,01,08,17,17.80
2021,07,01,08,18,17.80
2021,07,01,08,19,17.80
2021,07,01,08,20,17.80
2021,07,01,08,21,17.80
2021,07,01,08,22,17.80
2021,07,01,08,23,17.80
2021,07,01,08,24,17.80
2021,07,01,08,25,17.80
2021,07,01,08,26,17.80
2021,07,01,08,27,17.90
2021,07,01,08,28,17.90
2021,07,01,08,29,17.90
2021,07,01,08,30,17.90
2021,07,01,08,31,18.00
2021,07,01,08,32,18.00
2021,07,01,08,33,18.00
2021,07,01,08,34,18.10
2021,07,01,08,35,18.10
2021,07,01,08,36,18.10
2021,07,01,08,37,18.00
2021,07,01,08,38,18.00
2021,07,01,08,39,18.00
2021,07,01,08,40,18.00
2021,07,01,08,41,18.00
2021,07,01,08,42,18.00
2021,07,01,08,43,17.90
2021,07,01,08,44,17.90
2021,07,01,08,45,17.90
2021,07,01,08,46,18.00
2021,07,01,08,47,18.00
2021,07,01,08,48,18.00
2021,07,01,08,49,18.00
2021,07,01,08,50,18.00
2021,07,01,08,51,18.00
2021,07,01,08,52,18.00
2021,07,01,08,53,17.90
2021,07,01,08,54,17.90
2021,07,01,08,55,17.90
2021,07,01,08,56,17.90
2021,07,01,08,57,17.90
2021,07,01,08,58,17.90
2021,07,01,08,59,17.90
2021,07,01,09,00,17.90
2021,07,01,09,01,17.90
2021,07,01,09,02,17.90
2021,07,01,09,03,17.90
2021,07,01,09,04,17.90
2021,07,01,09,05,17.80
2021,07,01,09,06,17.80
2021,07,01,09,07,17.80
2021,07,01,09,08,17.80
2021,07,01,09,09,17.80
2021,07,01,09,10,17.80
2021,07,01,09,11,17.80
2021,07,01,09,12,17.80
2021,07,01,09,13,17.80
2021,07,01,09,14,17.80
2021,07,01,09,15,17.90
2021,07,01,09,16,17.90
2021,07,01,09,17,17.90
2021,07,01,09,18,17.90
2021,07,01,09,19,17.90
2021,07,01,09,20,18.00
2021,07,01,09,21,18.00
2021,07,01,09,22,18.00
2021,07,01,09,23,18.00
2021,07,01,09,24,18.00
2021,07,01,09,25,18.10
2021,07,01,09,26,18.10
2021,07,01,09,27,18.10
2021,07,01,09,28,18.10
2021,07,01,09,29,18.10
2021,07,01,09,30,18.10
2021,07,01,09,31,18.10
2021,07,01,09,32,18.20
2021,07,01,09,33,18.20
2021,07,01,09,34,18.20
2021,07,01,09,35,18.20
2021,07,01,09,36,18.20
2021,07,01,09,37,18.30
2021,07,01,09,38,18.20
2021,07,01,09,39,18.20
2021,07,01,09,40,18.20
2021,07,01,09,41,18.20
2021,07,01,09,42,18.20
2021,07,01,09,43,18.20
2021,07,01,09,44,18.20
2021,07,01,09,45,18.20
2021,07,01,09,46,18.20
2021,07,01,09,47,18.20
2021,07,01,09,48,18.20
2021,07,01,09,49,18.20
2021,07,01,09,50,18.30
2021,07,01,09,51,18.30
2021,07,01,09,52,18.30
2021,07,01,09,53,18.30
2021,07,01,09,54,18.30
2021,07,01,09,55,18.30
2021,07,01,09,56,18.30
2021,07,01,09,57,18.30
2021,07,01,09,58,18.30
2021,07,01,09,59,18.30
2021,07,01,10,00,18.40
2021,07,01,10,01,18.40
2021,07,01,10,02,18.40
2021,07,01,10,03,18.40
2021,07,01,10,04,18.30
2021,07,01,10,05,18.30
2021,07,01,10,06,18.40
2021,07,01,10,07,18.40
2021,07,01,10,08,18.40
2021,07,01,10,09,18.40
2021,07,01,10,10,18.40
2021,07,01,10,11,18.40
2021,07,01,10,12,18.40
2021,07,01,10,13,18.40
2021,07,01,10,14,18.40
2021,07,01,10,15,18.50
2021,07,01,10,16,18.50
2021,07,01,10,17,18.50
2021,07,01,10,18,18.60
2021,07,01,10,19,18.60
2021,07,01,10,20,18.60
2021,07,01,10,21,18.60
2021,07,01,10,22,18.60
2021,07,01,10,23,18.60
2021,07,01,10,24,18.60
2021,07,01,10,25,18.60
2021,07,01,10,26,18.60
2021,07,01,10,27,18.60
2021,07,01,10,28,18.60
2021,07,01,10,29,18.60
2021,07,01,10,30,18.60
2021,07,01,10,31,18.60
2021,07,01,10,32,18.60
2021,07,01,10,33,18.60
2021,07,01,10,34,18.60
2021,07,01,10,35,18.70
2021,07,01,10,36,18.70
2021,07,01,10,37,18.80
2021,07,01,10,38,18.80
2021,07,01,10,39,18.90
2021,07,01,10,40,18.90
2021,07,01,10,41,18.90
2021,07,01,10,42,19.00
2021,07,01,10,43,19.00
2021,07,01,10,44,19.10
2021,07,01,10,45,19.10
2021,07,01,10,46,19.10
2021,07,01,10,47,19.10
2021,07,01,10,48,19.20
2021,07,01,10,49,19.20
2021,07,01,10,50,19.10
2021,07,01,10,51,19.10
2021,07,01,10,52,19.10
2021,07,01,10,53,19.10
2021,07,01,10,54,19.20
2021,07,01,10,55,19.20
2021,07,01,10,56,19.20
2021,07,01,10,57,19.30
2021,07,01,10,58,19.30
2021,07,01,10,59,19.40
2021,07,01,11,00,19.40
2021,07,01,11,01,19.50
2021,07,01,11,02,19.60
2021,07,01,11,03,19.70
2021,07,01,11,04,19.70
2021,07,01,11,05,19.80
2021,07,01,11,06,19.80
2021,07,01,11,07,19.90
2021,07,01,11,08,19.90
2021,07,01,11,09,19.90
2021,07,01,11,10,19.90
2021,07,01,11,11,19.90
2021,07,01,11,12,20.00
2021,07,01,11,13,20.00
2021,07,01,11,14,20.10
2021,07,01,11,15,20.10
2021,07,01,11,16,20.10
2021,07,01,11,17,20.10
2021,07,01,11,18,20.20
2021,07,01,11,19,20.20
2021,07,01,11,20,20.20
2021,07,01,11,21,20.30
2021,07,01,11,22,20.40
2021,07,01,11,23,20.40
2021,07,01,11,24,20.50
2021,07,01,11,25,20.60
2021,07,01,11,26,20.60
2021,07,01,11,27,20.60
2021,07,01,11,28,20.70
2021,07,01,11,29,20.70
2021,07,01,11,30,20.70
2021,07,01,11,31,20.70
2021,07,01,11,32,20.70
2021,07,01,11,33,20.70
2021,07,01,11,34,20.70
2021,07,01,11,35,20.80
2021,07,01,11,36,20.80
2021,07,01,11,37,20.80
2021,07,01,11,38,20.90
2021,07,01,11,39,21.00
2021,07,01,11,40,21.00
2021,07,01,11,41,21.10
2021,07,01,11,42,21.10
2021,07,01,11,43,21.10
2021,07,01,11,44,21.20
2021,07,01,11,45,21.40
2021,07,01,11,46,21.50
2021,07,01,11,47,21.70
2021,07,01,11,48,21.80
2021,07,01,11,49,21.90
2021,07,01,11,50,22.00
2021,07,01,11,51,22.00
2021,07,01,11,52,22.10
2021,07,01,11,53,22.10
2021,07,01,11,54,22.10
2021,07,01,11,55,22.10
2021,07,01,11,56,22.10
2021,07,01,11,57,22.10
2021,07,01,11,58,22.10
2021,07,01,11,59,22.00
2021,07,01,12,00,22.00
2021,07,01,12,01,21.90
2021,07,01,12,02,21.80
2021,07,01,12,03,21.80
2021,07,01,12,04,21.80
2021,07,01,12,05,21.80
2021,07,01,12,06,21.90
2021,07,01,12,07,21.90
2021,07,01,12,08,21.90
2021,07,01,12,09,21.90
2021,07,01,12,10,21.90
2021,07,01,12,11,21.90
2021,07,01,12,12,21.90
2021,07,01,12,13,21.90
2021,07,01,12,14,21.90
2021,07,01,12,15,21.90
2021,07,01,12,16,21.90
2021,07,01,12,17,22.00
2021,07,01,12,18,22.00
2021,07,01,12,19,22.00
2021,07,01,12,20,22.10
2021,07,01,12,21,22.00
2021,07,01,12,22,22.00
2021,07,01,12,23,22.10
2021,07,01,12,24,22.10
2021,07,01,12,25,22.10
2021,07,01,12,26,22.10
2021,07,01,12,27,22.10
2021,07,01,12,28,22.20
2021,07,01,12,29,22.20
2021,07,01,12,30,22.10
2021,07,01,12,31,22.10
2021,07,01,12,32,22.10
2021,07,01,12,33,22.10
2021,07,01,12,34,22.10
2021,07,01,12,35,22.20
2021,07,01,12,36,22.20
2021,07,01,12,37,22.20
2021,07,01,12,38,22.20
2021,07,01,12,39,22.20
2021,07,01,12,40,22.20
2021,07,01,12,41,22.30
2021,07,01,12,42,22.40
2021,07,01,12,43,22.50
2021,07,01,12,44,22.50
2021,07,01,12,45,22.60
2021,07,01,12,46,22.70
2021,07,01,12,47,22.80
2021,07,01,12,48,22.80
2021,07,01,12,49,22.80
2021,07,01,12,50,22.80
2021,07,01,12,51,22.80
2021,07,01,12,52,22.80
2021,07,01,12,53,22.80
2021,07,01,12,54,22.80
2021,07,01,12,55,22.80
2021,07,01,12,56,22.70
2021,07,01,12,57,22.70
2021,07,01,12,58,22.70
2021,07,01,12,59,22.60
2021,07,01,13,00,22.60
2021,07,01,13,01,22.60
2021,07,01,13,02,22.50
2021,07,01,13,03,22.50
2021,07,01,13,04,22.50
2021,07,01,13,05,22.50
2021,07,01,13,06,22.60
2021,07,01,13,07,22.60
2021,07,01,13,08,22.70
2021,07,01,13,09,22.70
2021,07,01,13,10,22.70
2021,07,01,13,11,22.80
2021,07,01,13,12,22.80
2021,07,01,13,13,22.90
2021,07,01,13,14,22.90
2021,07,01,13,15,22.90
2021,07,01,13,16,22.90
2021,07,01,13,17,22.90
2021,07,01,13,18,22.90
2021,07,01,13,19,22.90
2021,07,01,13,20,22.90
2021,07,01,13,21,22.80
2021,07,01,13,22,22.80
2021,07,01,13,23,22.80
2021,07,01,13,24,22.80
2021,07,01,13,25,22.70
2021,07,01,13,26,22.70
2021,07,01,13,27,22.70
2021,07,01,13,28,22.80
2021,07,01,13,29,22.80
2021,07,01,13,30,22.80
2021,07,01,13,31,22.80
2021,07,01,13,32,22.90
2021,07,01,13,33,22.90
2021,07,01,13,34,22.90
2021,07,01,13,35,22.90
2021,07,01,13,36,22.90
2021,07,01,13,37,22.90
2021,07,01,13,38,22.90
2021,07,01,13,39,22.90
2021,07,01,13,40,22.90
2021,07,01,13,41,22.90
2021,07,01,13,42,22.90
2021,07,01,13,43,22.90
2021,07,01,13,44,23.00
2021,07,01,13,45,23.00
2021,07,01,13,46,23.00
2021,07,01,13,47,23.00
2021,07,01,13,48,23.00
2021,07,01,13,49,22.90
2021,07,01,13,50,22.80
2021,07,01,13,51,22.70
2021,07,01,13,52,22.70
2021,07,01,13,53,22.70
2021,07,01,13,54,22.70
2021,07,01,13,55,22.70
2021,07,01,13,56,22.70
2021,07,01,13,57,22.70
2021,07,01,13,58,22.70
2021,07,01,13,59,22.70
2021,07,01,14,00,22.70
2021,07,01,14,01,22.70
2021,07,01,14,02,22.70
2021,07,01,14,03,22.70
2021,07,01,14,04,22.80
2021,07,01,14,05,22.80
2021,07,01,14,06,22.90
2021,07,01,14,07,22.90
2021,07,01,14,08,22.90
2021,07,01,14,09,22.90
2021,07,01,14,10,22.90
2021,07,01,14,11,22.90
2021,07,01,14,12,22.90
2021,07,01,14,13,22.90
2021,07,01,14,14,22.90
2021,07,01,14,15,22.90
2021,07,01,14,16,22.80
2021,07,01,14,17,22.80
2021,07,01,14,18,22.80
2021,07,01,14,19,22.80
2021,07,01,14,20,22.80
2021,07,01,14,21,22.90
2021,07,01,14,22,22.90
2021,07,01,14,23,22.90
2021,07,01,14,24,22.90
2021,07,01,14,25,22.90
2021,07,01,14,26,22.90
2021,07,01,14,27,22.90
2021,07,01,14,28,22.90
2021,07,01,14,29,23.00
2021,07,01,14,30,23.00
2021,07,01,14,31,23.10
2021,07,01,14,32,23.10
2021,07,01,14,33,23.10
2021,07,01,14,34,23.10
2021,07,01,14,35,23.20
2021,07,01,14,36,23.20
2021,07,01,14,37,23.30
2021,07,01,14,38,23.30
2021,07,01,14,39,23.30
2021,07,01,14,40,23.30
2021,07,01,14,41,23.30
2021,07,01,14,42,23.30
2021,07,01,14,43,23.20
2021,07,01,14,44,23.20
2021,07,01,14,45,23.20
2021,07,01,14,46,23.20
2021,07,01,14,47,23.20
2021,07,01,14,48,23.30
2021,07,01,14,49,23.30
2021,07,01,14,50,23.40
2021,07,01,14,51,23.40
2021,07,01,14,52,23.40
2021,07,01,14,53,23.40
2021,07,01,14,54,23.50
2021,07,01,14,55,23.60
2021,07,01,14,56,23.60
2021,07,01,14,57,23.60
2021,07,01,14,58,23.60
2021,07,01,14,59,23.60
2021,07,01,15,00,23.60
2021,07,01,15,01,23.70
2021,07,01,15,02,23.70
2021,07,01,15,03,23.70
2021,07,01,15,04,23.80
2021,07,01,15,05,23.80
2021,07,01,15,06,23.80
2021,07,01,15,07,23.80
2021,07,01,15,08,23.80
2021,07,01,15,09,23.80
2021,07,01,15,10,23.80
2021,07,01,15,11,23.80
2021,07,01,15,12,23.70
2021,07,01,15,13,23.70
2021,07,01,15,14,23.60
2021,07,01,15,15,23.60
2021,07,01,15,16,23.60
2021,07,01,15,17,23.60
2021,07,01,15,18,23.60
2021,07,01,15,19,23.60
2021,07,01,15,20,23.50
2021,07,01,15,21,23.50
2021,07,01,15,22,23.40
2021,07,01,15,23,23.40
2021,07,01,15,24,23.40
2021,07,01,15,25,23.30
2021,07,01,15,26,23.30
2021,07,01,15,27,23.30
2021,07,01,15,28,23.30
2021,07,01,15,29,23.20
2021,07,01,15,30,23.20
2021,07,01,15,31,23.20
2021,07,01,15,32,23.20
2021,07,01,15,33,23.20
2021,07,01,15,34,23.10
2021,07,01,15,35,23.10
2021,07,01,15,36,23.10
2021,07,01,15,37,23.00
2021,07,01,15,38,23.00
2021,07,01,15,39,23.00
2021,07,01,15,40,22.90
2021,07,01,15,41,22.90
2021,07,01,15,42,22.90
2021,07,01,15,43,22.90
2021,07,01,15,44,22.90
2021,07,01,15,45,22.90
2021,07,01,15,46,22.80
2021,07,01,15,47,22.80
2021,07,01,15,48,22.80
2021,07,01,15,49,22.80
2021,07,01,15,50,22.80
2021,07,01,15,51,22.80
2021,07,01,15,52,22.80
2021,07,01,15,53,22.90
2021,07,01,15,54,22.90
2021,07,01,15,55,22.90
2021,07,01,15,56,23.00
2021,07,01,15,57,23.00
2021,07,01,15,58,23.10
2021,07,01,15,59,23.10
2021,07,01,16,00,23.20
2021,07,01,16,01,23.20
2021,07,01,16,02,23.20
2021,07,01,16,03,23.30
2021,07,01,16,04,23.30
2021,07,01,16,05,23.40
2021,07,01,16,06,23.50
2021,07,01,16,07,23.50
2021,07,01,16,08,23.70
2021,07,01,16,09,23.80
2021,07,01,16,10,23.80
2021,07,01,16,11,24.00
2021,07,01,16,12,24.00
2021,07,01,16,13,24.10
2021,07,01,16,14,24.20
2021,07,01,16,15,24.20
2021,07,01,16,16,24.30
2021,07,01,16,17,24.30
2021,07,01,16,18,24.30
2021,07,01,16,19,24.30
2021,07,01,16,20,24.20
2021,07,01,16,21,24.10
2021,07,01,16,22,24.00
2021,07,01,16,23,24.00
2021,07,01,16,24,24.00
2021,07,01,16,25,24.00
2021,07,01,16,26,24.10
2021,07,01,16,27,24.20
2021,07,01,16,28,24.20
2021,07,01,16,29,24.30
2021,07,01,16,30,24.30
2021,07,01,16,31,24.30
2021,07,01,16,32,24.30
2021,07,01,16,33,24.30
2021,07,01,16,34,24.30
2021,07,01,16,35,24.30
2021,07,01,16,36,24.30
2021,07,01,16,37,24.30
2021,07,01,16,38,24.30
2021,07,01,16,39,24.30
2021,07,01,16,40,24.40
2021,07,01,16,41,24.40
2021,07,01,16,42,24.40
2021,07,01,16,43,24.50
2021,07,01,16,44,24.50
2021,07,01,16,45,24.50
2021,07,01,16,46,24.50
2021,07,01,16,47,24.60
2021,07,01,16,48,24.50
2021,07,01,16,49,24.50
2021,07,01,16,50,24.50
2021,07,01,16,51,24.50
2021,07,01,16,52,24.50
2021,07,01,16,53,24.50
2021,07,01,16,54,24.60
2021,07,01,16,55,24.60
2021,07,01,16,56,24.60
2021,07,01,16,57,24.70
2021,07,01,16,58,24.70
2021,07,01,16,59,24.80
2021,07,01,17,00,24.80
2021,07,01,17,01,24.90
2021,07,01,17,02,24.90
2021,07,01,17,03,24.90
2021,07,01,17,04,24.90
2021,07,01,17,05,25.00
2021,07,01,17,06,25.00
2021,07,01,17,07,25.00
2021,07,01,17,08,25.10
2021,07,01,17,09,25.20
2021,07,01,17,10,25.20
2021,07,01,17,11,25.20
2021,07,01,17,12,25.20
2021,07,01,17,13,25.20
2021,07,01,17,14,25.20
2021,07,01,17,15,25.20
2021,07,01,17,16,25.20
2021,07,01,17,17,25.10
2021,07,01,17,18,25.10
2021,07,01,17,19,25.10